Presure
154 148 160 147 141 149 142 131 149 170 152 155 110 155 148 136 117 153 99 132 84 117 91 137 165 151 120 143 175 180 173 169 190 185 111 195 186 184 188 124 169 168 150
160 155 154 145 151 152 145 101 116 148 148 150 119 123 96 107 153 90 134 78 85 89 86 158 172 156 149 174 133 130 187 169 170 137 202 198 185 190 190 112 132 139 107
148 104 145 144 144 151 136 142 110 147 151 135 146 151 141 102 89 78 143 122 81 86 118 94 114 204 156 123 145 140 159 191 186 204 164 176 188 194 168 194 184 122 173
99 135 133 143 145 150 138 132 120 153 157 141 150 160 101 148 121 80 135 77 87 90 99 151 122 186 128 162 98 125 134 118 182 193 168 175 181 170 187 189 200 173 185
96 154 148 152 149 135 143 125 122 147 154 158 149 145 130 116 132 124 81 88 152 123 98 143 155 142 98 90 94 91 157 142 175 160 152 185 175 180 177 172 161 173 181
153 161 161 155 148 130 148 97 146 102 158 161 149 105 145 136 81 84 87 99 135 146 145 120 136 83 86 94 90 90 96 97 96 118 161 171 160 169 176 154 127 161 158
125 151 125 146 115 96 133 97 100 129 103 145 100 142 148 91 80 100 110 143 131 138 90 88 86 85 84 86 86 94 96 98 97 96 160 117 155 150 158 168 165 133 186
98 159 91 93 123 144 144 137 125 101 102 96 115 86 117 146 142 146 147 119 133 88 88 88 90 83 84 144 93 91 93 93 96 95 126 97 98 163 157 153 153 158 165
124 110 151 89 115 89 101 139 98 103 101 123 108 158 129 145 147 146 132 82 84 90 78 88 123 97 101 141 100 129 100 95 99 106 95 139 102 130 170 179 153 147 157
159 91 153 152 90 90 148 97 158 100 101 154 115 147 157 150 102 156 143 73 86 81 77 106 138 86 81 90 92 132 112 94 91 95 97 141 97 117 149 135 143 159 150
153 139 144 94 112 152 104 145 97 123 153 112 112 163 153 157 154 144 80 88 90 120 93 147 97 145 98 99 145 138 121 136 89 114 92 135 120 132 146 134 128 147 149
151 148 150 96 114 96 126 98 96 97 126 103 156 128 158 152 165 158 112 145 144 93 129 118 136 123 139 98 135 85 128 95 89 108 128 129 111 132 112 129 132 135 145
150 145 151 99 110 153 98 133 98 111 142 142 154 83 152 90 129 160 147 138 140 134 77 103 94 124 126 107 127 95 109 125 128 147 127 104 127 133 113 118 123 129 132
146 79 154 120 101 157 147 94 135 93 158 156 150 102 156 164 113 137 134 76 132 142 99 97 137 93 144 150 84 142 142 141 175 140 97 128 111 116 110 111 125 141 121
149 150 147 103 97 103 95 157 147 98 157 139 152 110 159 159 138 124 98 124 100 131 137 131 144 117 97 110 135 129 125 125 106 107 111 111 111 111 111 109 122 123 119
154 158 149 93 146 152 118 131 94 153 123 80 152 135 147 143 89 78 67 88 82 89 90 126 96 95 108 106 158 105 114 106 103 130 108 109 111 111 114 118 150 133 133
150 119 101 179 146 156 155 154 90 90 127 110 156 141 81 83 120 92 86 85 90 92 93 155 120 98 89 104 104 169 159 155 167 126 120 141 156 195 162 125 132 124 127
142 134 90 149 111 92 153 150 148 151 155 160 141 84 91 100 82 88 105 106 79 94 111 104 119 105 139 151 163 151 158 162 159 146 194 193 205 206 221 246 234 222 217
130 148 179 158 137 118 150 82 85 117 112 96 114 135 137 89 113 162 87 76 95 98 90 121 146 167 146 153 147 157 189 205 261 262 254 251 252 243 233 219 270 255 238
84 167 90 85 141 143 87 143 104 101 90 79 117 150 138 99 143 85 91 97 140 116 135 139 104 208 152 228 228 283 271 297 292 287 281 274 267 271 257 248 241 238 231
102 83 86 130 84 89 177 80 80 88 89 153 63 80 84 84 91 90 107 159 223 104 180 132 227 227 228 325 306 283 269 277 272 271 263 253 241 233 228 230 243 257 263
111 94 89 94 88 85 89 92 91 91 86 81 82 82 84 128 91 224 104 195 217 217 221 229 315 298 270 247 234 232 249 228 218 227 246 298 294 293 289 290 295 300 306
146 148 148 152 115 82 88 125 73 113 125 91 206 186 215 217 215 212 215 220 221 273 292 269 253 228 238 290 298 299 290 283 282 281 282 279 273 272 285 297 317 327 327
176 158 153 162 152 206 202 186 199 202 217 217 221 220 218 221 226 225 218 288 272 258 236 218 315 287 293 287 281 272 275 276 273 283 294 289 280 282 302 303 318 388 407
218 187 162 205 201 203 220 222 227 218 222 235 232 229 228 227 291 270 259 248 223 219 299 292 286 276 280 277 269 283 274 269 261 263 249 260 270 284 306 369 379 409 434
232 204 227 213 209 209 212 218 233 253 258 265 263 294 292 268 246 237 214 283 268 288 274 283 278 268 273 277 261 267 257 260 265 264 259 255 252 275 307 382 352 344 339
Wind_Speed
31 29 29 27 25 25 23 16 23 20 20 17 10 16 16 13 12 19 3 12 8 12 10 13 17 16 19 20 20 21 20 21 23 24 13 28 28 30 31 18 29 28 22
28 32 32 28 27 25 24 9 11 20 22 19 13 12 8 10 18 2 15 4 8 10 11 16 16 14 19 17 23 24 22 21 22 20 27 27 28 29 29 13 22 20 13
30 8 28 29 28 27 23 25 12 26 24 15 20 18 15 11 5 2 14 11 9 12 20 14 18 19 16 22 20 19 17 22 22 24 22 24 27 28 25 29 31 23 32
9 22 22 31 28 29 25 20 14 26 25 21 22 21 12 17 12 3 15 6 11 14 16 14 16 17 17 17 18 16 17 17 21 23 23 24 25 26 28 29 31 30 31
10 34 34 33 32 28 29 17 15 27 24 25 24 21 16 15 15 13 8 11 18 19 15 17 17 15 14 17 17 19 20 24 21 20 25 27 24 27 28 27 28 29 31
33 32 33 34 34 28 31 9 30 9 27 26 26 12 23 18 7 9 12 15 19 19 19 16 17 17 17 19 19 21 22 23 23 22 21 26 23 25 28 27 29 30 32
22 37 30 30 21 10 29 11 11 24 12 25 14 25 26 14 8 15 19 22 21 23 12 14 16 15 17 19 21 23 23 23 23 24 25 25 29 29 28 30 31 31 35
15 35 14 13 23 38 35 27 23 13 14 13 20 13 23 28 25 26 26 19 22 13 15 16 19 18 20 25 23 24 25 25 24 25 26 28 29 31 32 32 33 33 33
26 19 39 15 22 12 15 29 14 15 15 23 19 32 26 31 30 29 24 12 13 15 14 16 26 20 21 29 23 29 26 26 27 27 29 30 29 30 38 40 35 36 37
41 18 40 39 18 16 36 15 37 16 15 35 23 34 34 34 25 34 31 13 15 11 12 21 33 22 22 27 28 33 29 31 25 31 34 34 32 33 37 36 37 39 40
42 37 43 22 26 42 21 38 16 27 40 24 25 40 37 37 36 35 14 16 22 26 23 35 24 36 27 29 38 38 35 40 30 34 28 38 34 38 41 37 37 41 43
46 46 46 22 28 20 33 19 18 19 33 25 39 32 40 38 44 40 27 36 34 28 34 30 38 36 41 29 41 24 40 34 36 39 40 41 39 40 41 41 41 42 43
49 47 50 25 26 51 22 37 20 28 42 41 42 19 41 23 34 43 39 37 37 37 23 30 30 39 41 36 41 32 41 44 44 50 44 41 45 48 42 43 44 43 45
50 14 54 34 25 56 49 23 42 24 51 50 47 34 45 53 36 38 37 19 37 42 33 39 45 38 50 51 30 49 50 51 62 52 41 49 46 46 43 43 50 54 47
55 54 53 27 28 29 27 57 52 31 54 47 50 31 54 52 41 38 32 38 32 43 46 49 49 45 42 41 50 49 50 57 55 55 54 53 53 53 53 50 53 52 50
60 61 55 30 55 57 39 46 31 56 42 21 53 45 48 45 28 18 20 35 32 40 45 50 51 53 55 57 63 60 61 57 58 57 58 59 58 58 57 59 63 61 62
61 40 30 61 57 63 60 61 36 36 43 36 59 49 20 25 40 40 33 35 43 49 50 60 53 57 44 60 63 71 69 68 74 63 62 67 73 85 74 60 62 62 62
58 52 25 62 37 29 62 60 59 60 62 62 52 34 47 49 20 38 48 48 32 51 55 54 60 61 68 69 73 71 75 75 77 72 86 88 90 91 91 88 90 90 89
57 67 67 69 57 47 62 34 37 49 46 46 50 53 55 40 52 66 36 31 55 58 47 66 71 75 69 73 75 79 85 85 89 85 83 84 83 86 90 94 81 82 85
30 77 36 35 60 62 40 60 48 47 47 26 46 67 61 38 63 41 51 61 67 68 72 71 65 87 75 90 90 88 87 82 81 79 77 78 79 78 78 80 83 85 88
42 39 42 57 41 46 78 31 32 46 47 76 12 29 40 39 51 47 48 78 90 68 83 53 91 91 89 68 65 66 67 68 68 69 72 73 75 77 82 84 86 88 90
59 53 51 54 50 47 53 58 57 51 37 36 38 40 44 55 56 89 71 86 90 90 92 91 69 68 69 70 71 71 65 73 77 78 70 50 53 57 62 67 71 74 77
78 78 79 82 57 43 52 61 29 56 61 61 85 80 88 88 88 88 89 88 88 79 68 70 70 72 66 44 37 32 33 39 43 44 45 47 51 55 59 64 69 71 72
78 85 85 86 84 78 84 89 87 86 86 86 86 88 88 88 88 87 84 69 68 69 69 71 25 41 28 25 22 30 30 33 35 43 35 33 40 47 49 57 61 44 43
62 81 85 82 86 86 76 79 80 86 86 82 86 86 83 81 72 65 66 67 66 62 27 27 26 30 24 24 23 22 24 25 28 30 39 37 36 37 42 43 36 30 25
77 77 69 75 79 83 85 83 79 76 76 77 78 79 72 63 63 65 62 44 48 28 30 22 21 22 20 17 19 19 20 20 18 19 23 30 35 37 44 34 13 12 10
Wind_Direction
247 252 256 253 257 260 265 259 278 284 279 282 272 288 289 289 269 296 318 293 2 297 348 318 295 295 312 303 285 279 276 281 267 266 320 258 257 258 253 292 267 269 274
245 245 249 255 258 263 264 222 241 279 279 282 268 264 250 264 294 228 294 14 341 340 347 296 300 297 302 295 301 303 283 285 283 284 257 259 263 258 257 309 286 281 318
242 261 248 256 259 258 267 270 228 278 279 280 284 287 285 260 246 343 298 302 349 328 299 327 320 288 279 305 283 289 286 281 279 270 281 273 270 266 273 259 262 284 269
231 244 245 253 258 255 264 273 263 275 276 282 283 287 254 286 274 285 290 351 316 319 307 303 308 300 309 283 345 327 322 322 279 277 281 275 273 275 269 270 267 260 265
224 246 249 250 252 267 258 273 263 273 280 274 277 280 276 270 279 289 310 300 294 295 304 290 311 306 335 345 340 343 285 286 284 279 280 278 280 279 274 276 274 273 270
251 254 256 253 253 270 259 241 270 247 279 280 273 256 276 280 272 293 289 273 288 289 291 305 295 342 344 332 338 334 333 335 336 321 276 280 277 275 274 269 279 277 276
240 254 274 258 255 244 262 253 256 268 266 275 267 278 276 264 287 273 272 282 285 287 300 320 324 327 332 332 331 326 324 326 330 332 280 314 278 277 272 271 270 283 274
214 257 218 224 254 264 266 267 265 260 264 259 268 266 268 275 277 277 279 275 285 304 311 314 313 326 327 288 322 323 322 325 327 324 303 324 326 274 272 273 271 271 272
248 241 261 222 248 232 248 265 255 253 261 270 272 276 271 276 277 278 280 312 316 296 332 311 294 309 309 290 310 291 311 316 316 313 322 288 313 288 281 276 272 272 271
260 221 265 268 224 231 270 245 272 257 262 269 268 274 275 273 273 277 279 318 311 311 302 293 290 320 320 316 315 288 301 321 319 320 318 282 321 302 275 281 275 268 271
263 259 268 233 252 272 242 272 245 270 272 263 268 279 274 276 273 275 297 293 297 287 304 280 296 282 302 307 282 283 294 284 322 300 305 285 290 286 279 284 285 274 273
262 263 266 231 252 237 265 237 243 251 270 261 274 271 276 275 283 277 283 279 279 302 284 288 284 288 282 295 284 308 285 314 319 304 285 286 301 285 293 281 280 278 272
261 261 265 241 246 272 245 265 248 261 275 278 278 281 276 287 281 281 278 283 282 283 301 291 297 288 288 292 286 295 299 288 286 280 284 297 285 285 291 285 287 279 277
259 250 264 257 237 270 269 248 269 255 277 278 280 272 282 287 281 282 284 303 284 283 294 296 286 300 283 281 296 278 285 281 290 278 303 283 293 290 292 287 289 278 282
259 260 264 246 238 243 246 273 271 261 278 278 280 288 285 287 285 284 285 288 291 285 286 292 285 291 296 289 285 284 289 295 299 298 294 293 294 295 296 297 285 284 285
260 261 262 249 268 269 258 268 253 276 272 287 282 281 284 285 289 296 298 290 295 297 301 289 296 298 296 300 287 292 295 299 303 275 295 296 293 294 292 289 273 275 275
262 257 258 265 268 269 269 271 262 264 279 283 281 283 291 291 286 280 292 297 299 300 299 285 286 298 303 289 292 285 288 287 288 280 282 280 281 283 278 279 274 278 276
266 268 265 268 262 253 271 273 275 277 278 279 284 286 273 277 295 292 289 292 291 295 287 289 286 290 285 285 288 287 287 287 286 282 284 284 282 282 279 275 274 276 276
269 268 264 266 268 269 276 265 269 277 277 272 278 286 287 287 288 282 294 282 297 294 295 290 288 286 286 288 286 287 285 284 282 280 277 276 274 273 274 277 275 273 271
266 262 264 269 277 279 265 283 273 274 271 291 284 287 286 287 287 292 299 293 293 289 290 291 292 289 286 289 287 283 282 281 280 280 279 277 277 277 277 275 274 273 271
272 270 266 277 268 265 272 283 284 272 273 287 268 297 307 310 297 305 292 289 286 291 290 287 290 291 290 288 285 286 286 283 283 283 281 280 277 276 276 275 276 275 272
263 260 259 256 259 266 263 261 266 276 282 289 295 296 298 286 298 282 287 287 289 290 290 289 290 289 290 288 286 284 284 283 284 283 282 282 284 284 284 281 279 276 273
274 275 278 277 282 262 268 282 279 284 283 282 280 282 278 280 282 286 287 289 288 288 289 290 290 286 286 287 287 288 284 287 290 287 288 290 289 287 288 287 285 281 277
268 270 274 274 280 271 273 279 276 276 274 275 276 276 280 282 284 285 287 290 288 289 288 287 293 287 294 290 284 282 289 292 296 300 305 309 304 304 301 294 291 296 292
278 268 277 267 270 272 274 275 278 274 274 279 278 280 284 287 290 288 287 288 288 286 286 288 287 288 292 291 292 306 308 309 304 305 305 307 309 311 319 322 327 324 316
287 263 278 268 270 271 272 276 281 289 289 289 288 290 289 288 285 286 288 291 293 284 289 290 292 288 298 311 308 317 312 308 307 310 306 309 318 330 343 340 328 326 4